Tracking 28348 objects as of 8-Dec-2023
HD Live streaming from Space Station
objects crossing your sky now

STARLINK-30848

Track STARLINK-30848 now!
10-day predictions
STARLINK-30848 is classified as:


NORAD ID: 58240
Int'l Code: 2023-171L
Perigee: 523.8 km
Apogee: 527.4 km
Inclination: 43.0 °
Period: 95.0 minutes
Semi major axis: 6896 km
RCS: Unknown
Launch date: November 8, 2023
Source: United States (US)
Launch site: AIR FORCE EASTERN TEST RANGE (AFETR)
Your satellite tracking list
Your tracking list is empty




NASA's NSSDC Master Catalog

Two Line Element Set (TLE):
1 58240U 23171L   23342.16667824  .00193065  00000-0  96666-2 0  9996
2 58240  43.0000  82.0242 0002556 246.0804 267.1463 15.15832135  5938
Source of the keplerian elements: AFSPC